Location: Pian di Sc�
(43.6333°N, 11.5500°E)
Time: 17:25:03
(UTC+00:00)

ERBS - Pass Details

Date: 07 August 2020
Orbit: 412 x 421 km, 57.0° (Epoch: 17 September)

Event Time Altitude Azimuth Distance (km) Brightness Sun altitude
Rises 01:23:10 0° 316° (NW) 2,352 6.2 -23.7°
Reaches altitude 10° 01:25:19 10° 324° (NW) 1,487 5.2 -23.5°
Maximum altitude 01:28:30 43° 37° (NE) 596 3.4 -23.2°
Drops below altitude 10° 01:31:40 10° 111° (ESE) 1,480 5.2 -22.9°
Sets 01:33:48 0° 118° (ESE) 2,339 6.1 -22.6°
